{"data":{"norad_id":67060,"intl_designator":"2025-295B","name":"HULIANWANG DIGUI-120","alt_names":[],"object_type":"PAYLOAD","status":"ACTIVE","operator":null,"country":"PRC","launch_date":"2025-12-11","launch_site_code":"WSC","launch_vehicle":null,"mission":null,"orbit_class":"UNKNOWN","rcs_meters":null,"size_class":null,"mass_kg":null,"dimensions":null,"purposes":[],"wikipedia_slug":null,"has_3d_model":false,"image_url":null,"decayed_at":null,"tle_current":{"epoch":"2026-09-20T16:37:44.294592Z","epoch_age_seconds":91972,"freshness":"FRESH","line1":"1 67060U 25295B   26263.69287378 -.00000115  00000+0  20259-4 0  9990","line2":"2 67060  50.0051  43.1086 0000778  83.0970 276.9991 13.29328168 38202","mean_motion":13.29328168,"eccentricity":7.78e-5,"inclination_deg":50.0051,"raan_deg":43.1086,"arg_perigee_deg":83.097,"mean_anomaly_deg":276.9991,"bstar":2.0259e-5,"rev_number":3820,"period_min":108.3253958401,"perigee_km":1148.7127530449,"apogee_km":1149.8840219912,"semimajor_km":7527.435387518,"source":"CELESTRAK","updated_at":"2026-09-21T09:00:16.408574Z"}}}